contact:dominique.lefevre@mio.osupytheas.fr, maurice.libes@osupytheas.fr, didier.mallarino@osupytheas.fr
Project:EMSO http://www.emso-fr.org/EMSO-France
Depth: 2436.0 m
Title:EMSO Ligure Ouest : Data MII capteur AQUADOPP
Date,Latitude,Longitude,X_East,Y_North,Z_Up,Amplitude_X,Amplitude_Y,Amplitude_Z,Batterie,SoundSpeed,Heading,Pitch,Roll,Pressure,TIS,Speed,Direction
, degrees North, degrees East, m.s-1, m.s-1,m.s-1, 1, 1, 1, Volt, m.s-1, degree, degree, degree, dbar, degree_C, m.s-1, degree
2020-10-03T00:04:03,42.805,6.029,-0.023,-0.024,0.013,103.0,104.0,100.0,13.3,1505.3,326.4,-0.7,1.8,2470.435,13.31,0.033,223.8
2020-10-03T00:07:03,42.805,6.029,-0.018,-0.036,-0.019,105.0,104.0,101.0,13.4,1505.3,328.3,-0.7,1.8,2470.407,13.31,0.04,206.6
2020-10-03T00:10:03,42.805,6.029,-0.027,-0.031,-0.032,104.0,104.0,103.0,13.4,1505.3,325.7,-0.7,1.8,2470.414,13.32,0.041,221.1
2020-10-03T00:13:03,42.805,6.029,-0.032,-0.004,0.013,102.0,105.0,102.0,13.4,1505.3,327.8,-0.7,1.8,2470.4,13.32,0.032,262.9
2020-10-03T00:16:03,42.805,6.029,-0.04,-0.023,-0.006,104.0,104.0,102.0,13.4,1505.3,324.2,-0.7,1.8,2470.375,13.32,0.046,240.1
2020-10-03T00:19:03,42.805,6.029,-0.041,-0.011,-0.001,104.0,105.0,101.0,13.4,1505.3,325.6,-0.7,1.9,2470.398,13.32,0.042,255.0
2020-10-03T00:22:03,42.805,6.029,-0.038,-0.02,-0.01,102.0,105.0,101.0,13.3,1505.3,327.6,-0.7,1.8,2470.382,13.32,0.042,242.2
2020-10-03T00:25:03,42.805,6.029,-0.066,-0.001,-0.025,104.0,105.0,102.0,13.3,1505.3,326.1,-0.8,1.9,2470.395,13.32,0.066,269.1
2020-10-03T00:28:03,42.805,6.029,-0.064,-0.026,-0.021,103.0,105.0,101.0,13.3,1505.3,327.1,-0.7,1.8,2470.376,13.32,0.069,247.9
2020-10-03T00:31:03,42.805,6.029,-0.053,-0.007,0.01,103.0,105.0,101.0,13.3,1505.3,326.4,-0.7,1.8,2470.372,13.32,0.053,262.5
2020-10-03T00:34:03,42.805,6.029,-0.027,-0.031,0.013,103.0,104.0,101.0,13.3,1505.3,326.9,-0.7,1.8,2470.368,13.32,0.041,221.1
2020-10-03T00:37:03,42.805,6.029,-0.058,-0.029,-0.047,104.0,105.0,102.0,13.4,1505.3,326.5,-0.7,1.8,2470.392,13.32,0.064,243.4
2020-10-03T00:40:03,42.805,6.029,-0.022,-0.027,0.006,104.0,104.0,101.0,13.3,1505.3,325.9,-0.7,1.8,2470.365,13.32,0.034,219.2
2020-10-03T00:43:03,42.805,6.029,-0.038,-0.025,-0.013,104.0,105.0,102.0,13.4,1505.3,326.5,-0.7,1.8,2470.343,13.32,0.045,236.7
2020-10-03T00:46:03,42.805,6.029,-0.05,-0.025,-0.018,104.0,103.0,101.0,13.3,1505.3,326.1,-0.7,1.8,2470.352,13.32,0.055,243.4
2020-10-03T00:49:03,42.805,6.029,-0.038,-0.032,-0.03,102.0,105.0,102.0,13.4,1505.3,327.1,-0.7,1.8,2470.358,13.32,0.049,229.9
2020-10-03T00:52:03,42.805,6.029,-0.026,-0.015,0.0,103.0,105.0,101.0,13.4,1505.3,327.0,-0.7,1.8,2470.383,13.32,0.03,240.0
2020-10-03T00:55:03,42.805,6.029,-0.044,-0.021,-0.023,103.0,105.0,101.0,13.3,1505.3,325.7,-0.7,1.8,2470.394,13.32,0.048,244.5
2020-10-03T00:58:03,42.805,6.029,-0.042,-0.021,-0.016,102.0,106.0,102.0,13.4,1505.3,326.5,-0.7,1.8,2470.355,13.32,0.046,243.4
2020-10-03T01:04:03,42.805,6.029,-0.043,-0.015,-0.002,106.0,106.0,103.0,13.4,1505.2,323.0,-0.8,1.8,2470.421,13.3,0.045,250.8
2020-10-03T01:07:03,42.805,6.029,-0.037,-0.035,0.003,103.0,106.0,102.0,13.3,1505.3,323.5,-0.8,1.8,2470.41,13.31,0.05,226.6
2020-10-03T01:10:03,42.805,6.029,-0.054,-0.019,-0.038,104.0,104.0,101.0,13.4,1505.3,326.9,-0.7,1.8,2470.394,13.32,0.057,250.6
2020-10-03T01:13:03,42.805,6.029,-0.049,-0.024,-0.043,104.0,105.0,101.0,13.4,1505.3,324.0,-0.7,1.8,2470.378,13.32,0.054,243.9
2020-10-03T01:16:03,42.805,6.029,-0.04,-0.005,0.003,102.0,105.0,103.0,13.4,1505.3,325.7,-0.7,1.8,2470.39,13.32,0.04,262.9
2020-10-03T01:19:03,42.805,6.029,-0.036,-0.041,-0.001,102.0,106.0,101.0,13.4,1505.3,324.9,-0.7,1.8,2470.404,13.32,0.054,221.3
2020-10-03T01:22:03,42.805,6.029,-0.051,-0.025,0.007,103.0,105.0,101.0,13.4,1505.3,325.3,-0.7,1.8,2470.353,13.32,0.056,243.9
2020-10-03T01:25:03,42.805,6.029,-0.035,-0.011,-0.009,103.0,104.0,101.0,13.4,1505.3,328.0,-0.7,1.8,2470.373,13.32,0.036,252.6
2020-10-03T01:28:03,42.805,6.029,-0.026,-0.029,0.031,103.0,106.0,102.0,13.4,1505.3,325.5,-0.7,1.8,2470.339,13.32,0.038,221.9
2020-10-03T01:31:03,42.805,6.029,-0.052,-0.018,-0.033,103.0,105.0,101.0,13.4,1505.3,327.1,-0.7,1.8,2470.366,13.32,0.055,250.9
2020-10-03T01:34:03,42.805,6.029,-0.055,-0.018,-0.006,105.0,104.0,101.0,13.4,1505.3,324.0,-0.7,1.8,2470.359,13.32,0.057,251.9
2020-10-03T01:37:03,42.805,6.029,-0.042,-0.018,-0.02,103.0,106.0,103.0,13.4,1505.3,327.8,-0.7,1.8,2470.352,13.32,0.045,246.8
2020-10-03T01:40:03,42.805,6.029,-0.036,-0.016,0.002,102.0,104.0,101.0,13.4,1505.3,322.5,-0.7,1.8,2470.324,13.32,0.039,246.0
2020-10-03T01:43:03,42.805,6.029,-0.046,-0.016,-0.018,104.0,104.0,101.0,13.4,1505.3,326.1,-0.7,1.8,2470.307,13.32,0.048,250.8
2020-10-03T01:46:03,42.805,6.029,-0.025,-0.017,-0.007,103.0,104.0,101.0,13.4,1505.3,324.1,-0.7,1.8,2470.308,13.32,0.03,235.8
2020-10-03T01:49:03,42.805,6.029,-0.046,-0.02,-0.015,104.0,104.0,101.0,13.4,1505.3,324.1,-0.7,1.8,2470.335,13.32,0.05,246.5
2020-10-03T01:52:03,42.805,6.029,-0.055,-0.023,0.019,103.0,104.0,102.0,13.3,1505.3,326.4,-0.7,1.8,2470.363,13.32,0.059,247.3
2020-10-03T01:55:03,42.805,6.029,-0.03,-0.015,-0.012,102.0,105.0,101.0,13.4,1505.3,327.6,-0.7,1.9,2470.331,13.32,0.033,243.4
2020-10-03T01:58:03,42.805,6.029,-0.063,-0.028,-0.035,104.0,105.0,100.0,13.4,1505.3,326.5,-0.7,1.8,2470.342,13.32,0.068,246.0
2020-10-03T02:04:03,42.805,6.029,-0.051,-0.041,-0.013,103.0,103.0,101.0,13.3,1505.2,324.6,-0.7,1.8,2470.372,13.3,0.065,231.2
2020-10-03T02:07:03,42.805,6.029,-0.068,-0.005,-0.012,102.0,105.0,100.0,13.3,1505.3,327.1,-0.7,1.8,2470.366,13.31,0.068,265.8
2020-10-03T02:10:03,42.805,6.029,-0.062,-0.019,-0.009,103.0,104.0,102.0,13.3,1505.3,323.4,-0.7,1.8,2470.374,13.32,0.064,253.0
2020-10-03T02:13:03,42.805,6.029,-0.077,-0.037,-0.02,103.0,105.0,100.0,13.4,1505.3,325.6,-0.7,1.8,2470.365,13.32,0.085,244.3
2020-10-03T02:16:03,42.805,6.029,-0.043,-0.014,0.002,104.0,105.0,101.0,13.4,1505.3,326.9,-0.7,1.8,2470.376,13.32,0.045,252.0
2020-10-03T02:19:03,42.805,6.029,-0.038,-0.023,0.013,104.0,104.0,100.0,13.4,1505.3,323.7,-0.7,1.8,2470.326,13.32,0.044,238.8
2020-10-03T02:22:03,42.805,6.029,-0.033,-0.015,-0.012,104.0,105.0,101.0,13.3,1505.3,324.8,-0.7,1.8,2470.324,13.32,0.036,245.6
2020-10-03T02:25:03,42.805,6.029,-0.042,-0.016,-0.002,104.0,105.0,100.0,13.3,1505.3,326.3,-0.7,1.8,2470.358,13.32,0.044,249.1
2020-10-03T02:28:03,42.805,6.029,-0.034,-0.004,0.032,102.0,104.0,101.0,13.4,1505.3,324.0,-0.7,1.8,2470.362,13.32,0.034,263.3
2020-10-03T02:31:03,42.805,6.029,-0.061,-0.03,0.011,102.0,103.0,102.0,13.3,1505.3,325.9,-0.7,1.8,2470.332,13.32,0.067,243.8
2020-10-03T02:34:03,42.805,6.029,-0.073,-0.001,-0.004,104.0,104.0,101.0,13.4,1505.3,325.3,-0.7,1.8,2470.363,13.32,0.073,269.2
2020-10-03T02:37:03,42.805,6.029,-0.033,-0.007,0.032,103.0,106.0,100.0,13.4,1505.3,328.3,-0.7,1.9,2470.317,13.32,0.033,258.0
2020-10-03T02:40:03,42.805,6.029,-0.034,-0.008,0.036,104.0,105.0,102.0,13.4,1505.3,327.3,-0.7,1.8,2470.327,13.32,0.034,256.8
2020-10-03T02:43:03,42.805,6.029,-0.029,0.011,0.032,104.0,106.0,103.0,13.4,1505.3,326.8,-0.7,1.9,2470.338,13.32,0.031,290.8
2020-10-03T02:46:03,42.805,6.029,-0.028,-0.015,-0.019,102.0,105.0,102.0,13.4,1505.3,324.5,-0.7,1.8,2470.326,13.32,0.031,241.8
2020-10-03T02:49:03,42.805,6.029,-0.042,-0.004,0.018,103.0,106.0,102.0,13.4,1505.3,326.5,-0.7,1.8,2470.329,13.32,0.042,264.6
2020-10-03T02:52:03,42.805,6.029,-0.033,-0.013,-0.013,102.0,104.0,102.0,13.3,1505.3,322.7,-0.7,1.8,2470.325,13.32,0.035,248.5
2020-10-03T02:55:03,42.805,6.029,-0.067,-0.009,-0.013,103.0,106.0,100.0,13.4,1505.3,324.1,-0.7,1.8,2470.38,13.32,0.067,262.3
2020-10-03T02:58:03,42.805,6.029,-0.049,-0.018,0.011,103.0,105.0,100.0,13.3,1505.3,326.5,-0.7,1.8,2470.34,13.32,0.052,249.8
2020-10-03T03:04:03,42.805,6.029,-0.026,-0.009,-0.009,103.0,104.0,102.0,13.4,1505.2,328.0,-0.7,1.8,2470.384,13.3,0.027,250.9
2020-10-03T03:07:03,42.805,6.029,-0.039,-0.008,0.017,104.0,104.0,100.0,13.4,1505.3,325.6,-0.7,1.8,2470.383,13.31,0.039,258.4
2020-10-03T03:10:03,42.805,6.029,-0.037,-0.007,0.004,105.0,105.0,101.0,13.3,1505.3,325.6,-0.7,1.9,2470.331,13.32,0.037,259.3
2020-10-03T03:13:03,42.805,6.029,-0.027,-0.008,0.002,102.0,104.0,102.0,13.3,1505.3,325.5,-0.7,1.9,2470.336,13.32,0.028,253.5
2020-10-03T03:16:03,42.805,6.029,-0.051,-0.011,0.002,103.0,105.0,101.0,13.4,1505.3,325.7,-0.7,1.9,2470.369,13.32,0.052,257.8
2020-10-03T03:19:03,42.805,6.029,-0.066,-0.018,-0.025,103.0,106.0,102.0,13.4,1505.3,325.4,-0.7,1.8,2470.352,13.32,0.068,254.7
2020-10-03T03:22:03,42.805,6.029,-0.032,0.004,0.006,104.0,105.0,101.0,13.4,1505.3,327.7,-0.7,1.8,2470.351,13.32,0.032,277.1
2020-10-03T03:25:03,42.805,6.029,-0.034,-0.013,0.017,103.0,105.0,101.0,13.4,1505.3,323.0,-0.7,1.8,2470.369,13.32,0.036,249.1
2020-10-03T03:31:03,42.805,6.029,-0.044,-0.013,-0.019,103.0,104.0,101.0,13.4,1505.2,325.0,-0.7,1.8,2470.407,13.3,0.045,253.5
2020-10-03T03:34:03,42.805,6.029,-0.045,-0.003,-0.012,102.0,107.0,101.0,13.4,1505.3,324.2,-0.7,1.8,2470.432,13.31,0.045,266.2
2020-10-03T03:37:03,42.805,6.029,-0.064,0.002,0.006,103.0,106.0,101.0,13.4,1505.3,327.0,-0.7,1.8,2470.395,13.32,0.064,271.8
2020-10-03T03:40:03,42.805,6.029,-0.029,-0.017,0.005,104.0,105.0,102.0,13.3,1505.3,328.2,-0.7,1.8,2470.401,13.32,0.033,239.6
2020-10-03T03:43:03,42.805,6.029,-0.036,-0.017,0.01,103.0,105.0,102.0,13.4,1505.3,328.5,-0.7,1.9,2470.409,13.32,0.039,244.7
2020-10-03T03:46:03,42.805,6.029,-0.063,0.004,0.014,102.0,105.0,101.0,13.4,1505.3,327.8,-0.7,1.9,2470.385,13.32,0.063,273.6
2020-10-03T03:49:03,42.805,6.029,-0.076,-0.005,-0.033,103.0,105.0,101.0,13.4,1505.3,325.8,-0.7,1.8,2470.383,13.32,0.076,266.2
2020-10-03T03:52:03,42.805,6.029,-0.055,0.006,0.029,104.0,107.0,101.0,13.4,1505.3,324.2,-0.7,1.8,2470.391,13.32,0.055,276.2
2020-10-03T03:55:03,42.805,6.029,-0.045,0.003,0.0,102.0,106.0,101.0,13.3,1505.3,327.1,-0.7,1.8,2470.368,13.33,0.045,273.8
2020-10-03T03:58:03,42.805,6.029,-0.031,-0.03,-0.004,103.0,106.0,101.0,13.4,1505.3,326.1,-0.7,1.8,2470.388,13.33,0.043,225.9
2020-10-03T04:04:03,42.805,6.029,-0.05,0.002,-0.017,103.0,105.0,101.0,13.4,1505.3,323.8,-0.7,1.8,2470.427,13.31,0.05,272.3
2020-10-03T04:07:03,42.805,6.029,-0.035,-0.003,0.006,103.0,106.0,101.0,13.3,1505.3,326.8,-0.7,1.8,2470.433,13.31,0.035,265.1
2020-10-03T04:10:03,42.805,6.029,-0.075,-0.021,-0.013,104.0,106.0,100.0,13.3,1505.3,325.4,-0.7,1.8,2470.385,13.32,0.077,254.4
2020-10-03T04:13:03,42.805,6.029,-0.048,-0.013,0.004,104.0,107.0,102.0,13.4,1505.3,323.2,-0.7,1.8,2470.427,13.32,0.049,254.8
2020-10-03T04:16:03,42.805,6.029,-0.05,-0.005,-0.033,103.0,106.0,101.0,13.4,1505.3,327.6,-0.7,1.8,2470.377,13.32,0.05,264.3
2020-10-03T04:19:03,42.805,6.029,-0.081,-0.011,-0.014,103.0,105.0,100.0,13.4,1505.3,328.2,-0.7,1.8,2470.411,13.32,0.081,262.3
2020-10-03T04:22:03,42.805,6.029,-0.06,0.004,-0.021,103.0,106.0,100.0,13.4,1505.3,326.8,-0.7,1.9,2470.408,13.32,0.06,273.8
2020-10-03T04:25:03,42.805,6.029,-0.054,-0.001,-0.004,103.0,105.0,100.0,13.4,1505.3,325.6,-0.7,1.8,2470.416,13.33,0.054,268.9
2020-10-03T04:28:03,42.805,6.029,-0.062,-0.004,-0.001,103.0,106.0,101.0,13.4,1505.3,324.9,-0.7,1.8,2470.409,13.33,0.062,266.3
2020-10-03T04:31:03,42.805,6.029,-0.044,0.002,-0.014,102.0,107.0,102.0,13.3,1505.3,324.5,-0.7,1.8,2470.392,13.33,0.044,272.6
2020-10-03T04:34:03,42.805,6.029,-0.037,-0.005,-0.006,103.0,106.0,101.0,13.3,1505.3,324.5,-0.7,1.8,2470.411,13.33,0.037,262.3
2020-10-03T04:37:03,42.805,6.029,-0.052,0.004,-0.018,102.0,106.0,101.0,13.4,1505.3,324.9,-0.7,1.8,2470.398,13.33,0.052,274.4
2020-10-03T04:40:03,42.805,6.029,-0.067,0.002,0.009,104.0,107.0,101.0,13.3,1505.3,326.7,-0.7,1.8,2470.396,13.33,0.067,271.7
2020-10-03T04:43:03,42.805,6.029,-0.052,-0.013,0.0,102.0,107.0,102.0,13.4,1505.3,325.2,-0.7,1.8,2470.435,13.33,0.053,256.0
2020-10-03T04:46:03,42.805,6.029,-0.025,0.012,0.021,102.0,107.0,100.0,13.4,1505.3,326.3,-0.7,1.8,2470.387,13.33,0.027,295.6
2020-10-03T04:49:03,42.805,6.029,-0.063,0.001,-0.008,102.0,107.0,101.0,13.4,1505.3,324.5,-0.7,1.8,2470.407,13.33,0.063,270.9
2020-10-03T04:52:03,42.805,6.029,-0.071,-0.007,-0.03,104.0,107.0,100.0,13.4,1505.3,327.0,-0.6,1.8,2470.399,13.33,0.071,264.4
2020-10-03T04:55:03,42.805,6.029,-0.063,-0.004,-0.02,103.0,106.0,101.0,13.4,1505.3,323.0,-0.7,1.8,2470.363,13.33,0.063,266.4
2020-10-03T04:58:03,42.805,6.029,-0.042,0.0,0.02,103.0,105.0,100.0,13.4,1505.3,325.1,-0.7,1.8,2470.421,13.33,0.042,270.0
2020-10-03T05:04:03,42.805,6.029,-0.06,-0.003,0.009,103.0,108.0,101.0,13.3,1505.3,326.9,-0.7,1.8,2470.441,13.31,0.06,267.1
2020-10-03T05:07:03,42.805,6.029,-0.072,0.001,-0.007,104.0,108.0,101.0,13.3,1505.3,327.4,-0.7,1.8,2470.454,13.31,0.072,270.8
2020-10-03T05:10:03,42.805,6.029,-0.028,0.022,0.007,104.0,108.0,100.0,13.4,1505.3,327.4,-0.7,1.8,2470.46,13.32,0.035,308.2
2020-10-03T05:13:03,42.805,6.029,-0.043,0.028,0.016,103.0,108.0,101.0,13.4,1505.3,327.7,-0.7,1.8,2470.442,13.32,0.051,303.1
2020-10-03T05:16:03,42.805,6.029,-0.038,0.022,0.008,102.0,108.0,101.0,13.4,1505.3,326.2,-0.7,1.8,2470.432,13.32,0.043,300.1
2020-10-03T05:19:03,42.805,6.029,-0.054,0.023,0.01,103.0,109.0,102.0,13.3,1505.3,325.4,-0.7,1.8,2470.412,13.32,0.058,293.1
2020-10-03T05:22:03,42.805,6.029,-0.043,0.02,-0.009,103.0,108.0,100.0,13.4,1505.3,323.5,-0.7,1.8,2470.424,13.32,0.047,294.9
2020-10-03T05:25:03,42.805,6.029,-0.033,0.02,0.009,104.0,109.0,101.0,13.4,1505.3,328.4,-0.7,1.8,2470.431,13.33,0.038,301.2
2020-10-03T05:28:03,42.805,6.029,-0.045,-0.008,0.007,104.0,109.0,101.0,13.4,1505.3,326.0,-0.7,1.9,2470.439,13.33,0.045,259.9
2020-10-03T05:31:03,42.805,6.029,-0.052,0.022,-0.021,104.0,107.0,101.0,13.4,1505.3,325.5,-0.7,1.8,2470.455,13.33,0.056,292.9
2020-10-03T05:34:03,42.805,6.029,-0.059,0.0,-0.004,103.0,107.0,102.0,13.3,1505.3,324.9,-0.7,1.8,2470.463,13.33,0.058,270.0
2020-10-03T05:37:03,42.805,6.029,-0.04,0.022,0.011,103.0,108.0,102.0,13.4,1505.3,326.6,-0.7,1.8,2470.43,13.33,0.045,298.8
2020-10-03T05:40:03,42.805,6.029,-0.026,-0.003,0.011,103.0,109.0,101.0,13.4,1505.3,324.8,-0.7,1.9,2470.468,13.33,0.026,263.4
2020-10-03T05:43:03,42.805,6.029,-0.048,0.011,0.005,103.0,109.0,102.0,13.4,1505.3,328.0,-0.7,1.8,2470.436,13.33,0.049,282.9
2020-10-03T05:46:03,42.805,6.029,-0.029,-0.003,0.0,105.0,107.0,101.0,13.4,1505.3,326.6,-0.7,1.9,2470.404,13.33,0.029,264.1
2020-10-03T05:49:03,42.805,6.029,-0.076,0.021,-0.032,103.0,108.0,101.0,13.4,1505.3,326.4,-0.7,1.8,2470.414,13.33,0.078,285.4
2020-10-03T05:52:03,42.805,6.029,-0.039,0.011,0.001,103.0,108.0,101.0,13.4,1505.3,324.2,-0.7,1.8,2470.442,13.33,0.04,285.7
2020-10-03T05:55:03,42.805,6.029,-0.068,0.022,0.002,104.0,108.0,101.0,13.4,1505.3,326.4,-0.7,1.8,2470.418,13.33,0.071,287.9
2020-10-03T05:58:03,42.805,6.029,-0.05,0.017,-0.023,103.0,109.0,101.0,13.4,1505.3,327.8,-0.7,1.9,2470.422,13.33,0.052,288.8
2020-10-03T06:04:03,42.805,6.029,-0.045,0.022,0.011,103.0,108.0,101.0,13.3,1505.3,324.2,-0.7,1.8,2470.451,13.31,0.05,296.1
2020-10-03T06:07:03,42.805,6.029,-0.073,0.024,0.015,104.0,109.0,102.0,13.4,1505.3,327.0,-0.7,1.8,2470.486,13.31,0.076,288.2
2020-10-03T06:10:03,42.805,6.029,-0.037,0.005,0.037,103.0,107.0,101.0,13.4,1505.3,326.6,-0.7,1.8,2470.48,13.32,0.037,277.7
2020-10-03T06:13:03,42.805,6.029,-0.055,0.01,0.02,104.0,108.0,101.0,13.4,1505.3,324.4,-0.7,1.8,2470.473,13.32,0.055,280.3
2020-10-03T06:16:03,42.805,6.029,-0.073,0.012,0.011,104.0,109.0,101.0,13.4,1505.3,324.5,-0.7,1.8,2470.454,13.32,0.073,279.3
2020-10-03T06:19:03,42.805,6.029,-0.047,0.008,-0.007,104.0,109.0,101.0,13.4,1505.3,327.6,-0.7,1.8,2470.482,13.32,0.047,279.7
2020-10-03T06:22:03,42.805,6.029,-0.036,0.012,-0.033,103.0,108.0,102.0,13.4,1505.3,325.5,-0.7,1.8,2470.462,13.33,0.037,288.4
2020-10-03T06:25:03,42.805,6.029,-0.05,0.009,-0.008,102.0,109.0,102.0,13.4,1505.3,326.7,-0.7,1.8,2470.469,13.33,0.05,280.2
2020-10-03T06:28:03,42.805,6.029,-0.045,0.028,0.006,102.0,109.0,102.0,13.3,1505.3,324.5,-0.7,1.8,2470.48,13.33,0.053,301.9
2020-10-03T06:31:03,42.805,6.029,-0.069,0.008,-0.028,103.0,109.0,101.0,13.3,1505.3,325.5,-0.7,1.8,2470.439,13.33,0.069,276.6
2020-10-03T06:34:03,42.805,6.029,-0.045,0.003,-0.021,103.0,111.0,101.0,13.4,1505.3,323.4,-0.7,1.8,2470.514,13.33,0.045,273.8
2020-10-03T06:37:03,42.805,6.029,-0.05,0.014,-0.02,103.0,111.0,101.0,13.4,1505.3,324.8,-0.7,1.8,2470.47,13.33,0.051,285.6
2020-10-03T06:40:03,42.805,6.029,-0.063,0.025,0.006,103.0,110.0,101.0,13.3,1505.3,324.6,-0.7,1.8,2470.505,13.33,0.067,291.6
2020-10-03T06:43:03,42.805,6.029,-0.047,0.012,0.013,104.0,110.0,101.0,13.4,1505.3,325.7,-0.7,1.8,2470.472,13.33,0.048,284.3
2020-10-03T06:46:03,42.805,6.029,-0.051,0.006,-0.011,104.0,109.0,102.0,13.4,1505.3,327.8,-0.7,1.9,2470.479,13.33,0.051,276.7
2020-10-03T06:49:03,42.805,6.029,-0.058,0.022,-0.015,104.0,108.0,101.0,13.4,1505.3,327.5,-0.7,1.8,2470.484,13.33,0.062,290.8
2020-10-03T06:52:03,42.805,6.029,-0.051,-0.003,-0.024,103.0,110.0,101.0,13.3,1505.3,327.3,-0.7,1.8,2470.477,13.33,0.051,266.6
2020-10-03T06:55:03,42.805,6.029,-0.052,0.018,0.001,103.0,109.0,102.0,13.3,1505.3,324.9,-0.7,1.9,2470.458,13.33,0.055,289.1
2020-10-03T06:58:03,42.805,6.029,-0.077,0.03,-0.023,103.0,112.0,102.0,13.4,1505.3,327.0,-0.7,1.8,2470.514,13.33,0.082,291.3
2020-10-03T07:04:03,42.805,6.029,-0.024,0.023,0.021,103.0,110.0,102.0,13.3,1505.3,322.9,-0.8,1.8,2470.531,13.31,0.033,313.8
2020-10-03T07:07:03,42.805,6.029,-0.013,0.01,0.037,103.0,111.0,101.0,13.4,1505.3,324.7,-0.7,1.8,2470.521,13.31,0.016,307.6
2020-10-03T07:10:03,42.805,6.029,-0.058,0.013,-0.005,102.0,110.0,101.0,13.3,1505.3,325.1,-0.7,1.8,2470.537,13.32,0.059,282.6
2020-10-03T07:13:03,42.805,6.029,-0.041,-0.005,-0.007,103.0,109.0,101.0,13.4,1505.3,328.1,-0.7,1.8,2470.558,13.32,0.041,263.0
2020-10-03T07:16:03,42.805,6.029,-0.032,0.014,-0.008,104.0,109.0,101.0,13.4,1505.3,327.4,-0.7,1.8,2470.516,13.32,0.034,293.6
2020-10-03T07:19:03,42.805,6.029,-0.05,0.02,0.031,104.0,111.0,102.0,13.3,1505.3,328.1,-0.7,1.8,2470.501,13.33,0.053,291.8
2020-10-03T07:22:03,42.805,6.029,-0.038,0.024,0.011,104.0,111.0,101.0,13.4,1505.3,326.9,-0.7,1.8,2470.526,13.33,0.044,302.3
2020-10-03T07:25:03,42.805,6.029,-0.038,0.01,0.02,104.0,111.0,102.0,13.3,1505.3,322.9,-0.7,1.8,2470.516,13.33,0.039,284.7
2020-10-03T07:28:03,42.805,6.029,-0.028,0.018,0.028,102.0,110.0,101.0,13.4,1505.3,323.4,-0.7,1.8,2470.527,13.33,0.033,302.7
2020-10-03T07:31:03,42.805,6.029,-0.065,-0.016,-0.027,104.0,108.0,101.0,13.3,1505.3,324.5,-0.7,1.8,2470.513,13.33,0.066,256.2
2020-10-03T07:34:03,42.805,6.029,-0.034,0.012,-0.005,103.0,109.0,103.0,13.4,1505.3,324.9,-0.7,1.8,2470.506,13.33,0.036,289.4
2020-10-03T07:37:03,42.805,6.029,-0.044,0.012,0.022,104.0,109.0,102.0,13.4,1505.3,326.8,-0.7,1.8,2470.538,13.33,0.045,285.3
2020-10-03T07:40:03,42.805,6.029,-0.03,-0.002,0.02,104.0,108.0,101.0,13.3,1505.3,326.2,-0.7,1.8,2470.551,13.33,0.03,266.2
2020-10-03T07:43:03,42.805,6.029,-0.055,0.008,0.008,103.0,110.0,101.0,13.4,1505.3,326.8,-0.7,1.8,2470.586,13.33,0.055,278.3
2020-10-03T07:46:03,42.805,6.029,-0.026,0.005,0.001,104.0,109.0,103.0,13.3,1505.3,326.3,-0.7,1.8,2470.5,13.33,0.026,280.9
2020-10-03T07:49:03,42.805,6.029,-0.017,-0.002,0.012,104.0,109.0,102.0,13.3,1505.3,323.8,-0.7,1.8,2470.522,13.33,0.017,263.3
2020-10-03T07:52:03,42.805,6.029,-0.036,0.023,0.029,104.0,109.0,102.0,13.4,1505.3,326.1,-0.7,1.8,2470.497,13.33,0.042,302.6
2020-10-03T07:55:03,42.805,6.029,-0.047,0.02,0.002,104.0,111.0,101.0,13.3,1505.3,324.6,-0.7,1.8,2470.547,13.33,0.051,293.0
2020-10-03T07:58:03,42.805,6.029,-0.062,-0.003,-0.03,104.0,111.0,101.0,13.3,1505.3,326.5,-0.7,1.8,2470.535,13.33,0.062,267.2
2020-10-03T08:04:03,42.805,6.029,-0.033,-0.002,-0.003,103.0,109.0,103.0,13.4,1505.3,326.2,-0.8,1.8,2470.599,13.31,0.033,266.5
2020-10-03T08:07:03,42.805,6.029,-0.041,0.007,-0.015,102.0,109.0,102.0,13.3,1505.3,324.8,-0.7,1.8,2470.545,13.31,0.041,279.7
2020-10-03T08:10:03,42.805,6.029,-0.04,0.013,0.006,103.0,109.0,101.0,13.3,1505.3,324.2,-0.7,1.8,2470.564,13.32,0.042,288.0
2020-10-03T08:13:03,42.805,6.029,-0.018,0.007,0.035,106.0,110.0,101.0,13.3,1505.3,324.2,-0.7,1.8,2470.527,13.32,0.019,291.2
2020-10-03T08:16:03,42.805,6.029,-0.027,0.009,-0.003,104.0,108.0,102.0,13.4,1505.3,325.1,-0.7,1.8,2470.481,13.33,0.028,288.4
2020-10-03T08:19:03,42.805,6.029,-0.039,-0.009,-0.002,104.0,109.0,102.0,13.3,1505.3,324.3,-0.7,1.8,2470.546,13.33,0.04,257.0
2020-10-03T08:22:03,42.805,6.029,-0.01,-0.012,0.021,105.0,107.0,101.0,13.3,1505.3,324.8,-0.7,1.9,2470.501,13.33,0.015,219.8
2020-10-03T08:25:03,42.805,6.029,-0.027,-0.002,0.001,104.0,108.0,102.0,13.4,1505.3,325.9,-0.7,1.8,2470.543,13.33,0.027,265.8
2020-10-03T08:28:03,42.805,6.029,-0.027,0.008,-0.006,104.0,110.0,102.0,13.3,1505.3,324.8,-0.7,1.9,2470.517,13.33,0.028,286.5
2020-10-03T08:31:03,42.805,6.029,-0.004,0.013,0.018,105.0,108.0,101.0,13.4,1505.3,327.7,-0.7,1.8,2470.487,13.33,0.013,342.9
2020-10-03T08:34:03,42.805,6.029,-0.031,0.004,0.016,105.0,108.0,102.0,13.4,1505.3,323.5,-0.7,1.8,2470.467,13.33,0.031,277.3
2020-10-03T08:37:03,42.805,6.029,-0.017,-0.004,0.021,105.0,109.0,100.0,13.4,1505.3,325.7,-0.7,1.8,2470.532,13.33,0.017,256.8
2020-10-03T08:40:03,42.805,6.029,-0.03,0.0,-0.006,103.0,107.0,102.0,13.3,1505.3,324.5,-0.7,1.9,2470.512,13.33,0.03,270.0
2020-10-03T08:43:03,42.805,6.029,-0.025,0.01,-0.006,105.0,108.0,102.0,13.4,1505.3,327.7,-0.7,1.8,2470.474,13.33,0.026,291.8
2020-10-03T08:46:03,42.805,6.029,-0.046,-0.003,-0.029,103.0,108.0,101.0,13.4,1505.3,322.8,-0.7,1.8,2470.499,13.33,0.046,266.3
2020-10-03T08:49:03,42.805,6.029,-0.021,0.01,0.01,103.0,108.0,101.0,13.4,1505.3,323.1,-0.7,1.8,2470.549,13.33,0.023,295.5
2020-10-03T08:52:03,42.805,6.029,-0.039,0.0,0.0,103.0,108.0,102.0,13.3,1505.3,324.5,-0.7,1.9,2470.495,13.33,0.039,270.0
2020-10-03T08:55:03,42.805,6.029,0.015,0.027,0.037,103.0,108.0,102.0,13.4,1505.3,326.3,-0.7,1.9,2470.465,13.33,0.03,29.1
2020-10-03T08:58:03,42.805,6.029,-0.043,0.028,0.016,104.0,109.0,100.0,13.4,1505.3,326.7,-0.7,1.8,2470.452,13.33,0.051,303.1
2020-10-03T09:04:03,42.805,6.029,-0.021,0.013,0.018,103.0,109.0,102.0,13.4,1505.3,325.9,-0.8,1.8,2470.563,13.31,0.024,301.8
2020-10-03T09:07:03,42.805,6.029,-0.037,-0.008,-0.02,105.0,108.0,101.0,13.4,1505.3,326.0,-0.7,1.8,2470.526,13.32,0.037,257.8
2020-10-03T09:10:03,42.805,6.029,-0.022,0.002,-0.026,105.0,109.0,103.0,13.3,1505.3,326.7,-0.7,1.8,2470.498,13.33,0.022,275.2
2020-10-03T09:13:03,42.805,6.029,-0.025,0.016,-0.01,104.0,109.0,101.0,13.4,1505.3,324.0,-0.7,1.8,2470.53,13.33,0.029,302.6
2020-10-03T09:16:03,42.805,6.029,-0.044,0.001,-0.008,104.0,107.0,102.0,13.4,1505.3,327.3,-0.7,1.9,2470.516,13.33,0.044,271.3
2020-10-03T09:19:03,42.805,6.029,-0.036,0.02,-0.004,103.0,108.0,102.0,13.4,1505.3,326.2,-0.7,1.8,2470.458,13.33,0.041,299.1
2020-10-03T09:22:03,42.805,6.029,-0.022,0.005,-0.018,104.0,108.0,103.0,13.4,1505.4,326.1,-0.7,1.8,2470.501,13.34,0.022,282.8
2020-10-03T09:25:03,42.805,6.029,-0.044,0.001,-0.027,105.0,109.0,102.0,13.4,1505.4,327.0,-0.7,1.8,2470.485,13.34,0.044,271.3
2020-10-03T09:28:03,42.805,6.029,-0.048,0.001,-0.025,105.0,110.0,101.0,13.3,1505.4,327.7,-0.7,1.8,2470.523,13.34,0.048,271.2
2020-10-03T09:31:03,42.805,6.029,-0.023,-0.005,-0.018,105.0,109.0,102.0,13.4,1505.3,325.9,-0.7,1.8,2470.524,13.33,0.023,257.7
2020-10-03T09:34:03,42.805,6.029,-0.022,0.0,-0.015,105.0,107.0,102.0,13.4,1505.3,327.2,-0.7,1.8,2470.481,13.33,0.022,270.0
2020-10-03T09:37:03,42.805,6.029,-0.048,0.003,-0.014,103.0,108.0,103.0,13.4,1505.3,323.2,-0.7,1.8,2470.496,13.33,0.048,273.6
2020-10-03T09:40:03,42.805,6.029,-0.034,0.004,-0.013,103.0,106.0,102.0,13.4,1505.3,325.8,-0.7,1.9,2470.498,13.33,0.034,276.7
2020-10-03T09:43:03,42.805,6.029,-0.042,0.01,-0.013,103.0,107.0,102.0,13.4,1505.3,324.9,-0.7,1.8,2470.45,13.33,0.043,283.4
2020-10-03T09:46:03,42.805,6.029,-0.041,-0.004,0.006,104.0,108.0,100.0,13.3,1505.4,327.7,-0.7,1.8,2470.479,13.34,0.041,264.4
2020-10-03T09:49:03,42.805,6.029,-0.025,-0.008,0.004,104.0,109.0,100.0,13.4,1505.4,323.3,-0.7,1.8,2470.464,13.34,0.026,252.3
2020-10-03T09:52:03,42.805,6.029,-0.077,0.004,-0.05,104.0,108.0,103.0,13.4,1505.3,323.2,-0.7,1.9,2470.486,13.33,0.077,273.0
2020-10-03T09:58:03,42.805,6.029,-0.024,-0.008,0.017,104.0,108.0,102.0,13.4,1505.3,324.2,-0.7,1.8,2470.53,13.32,0.025,251.6